Location: Bourg-d�Oueil
(42.8588°N, 0.4991°E)
Time: 02:56:26
(UTC+00:00)

Cosmos 2278 - Pass Details

Date: 16 June 2021
Orbit: 841 x 851 km, 71.1° (Epoch: 04 August)

Event Time Altitude Azimuth Distance (km) Brightness Sun altitude
Rises 20:03:31 0° 211° (SSW) 3,398 6.8 -4.5°
Reaches altitude 10° 20:05:59 10° 213° (SSW) 2,465 6.1 -4.8°
Maximum altitude 20:11:37 67° 296° (WNW) 914 4.2 -5.6°
Drops below altitude 10° 20:17:16 10° 20° (NNE) 2,473 6.4 -6.4°
Sets 20:19:45 0° 23° (NNE) 3,411 7.1 -6.8°
